Location: Star Camp Observatory
(34.2910°N, 116.3827°W)
Time: 13:01:52
(UTC-08:00)

Envisat - Pass Details

Date: 24 November 2019
Orbit: 764 x 766 km, 98.1° (Epoch: 08 December)

Event Time Altitude Azimuth Distance (km) Brightness Sun altitude
Rises 17:47:27 0° 166° (SSE) 3,214 6.2 -14.5°
Reaches altitude 10° 17:49:44 10° 165° (SSE) 2,292 5.5 -14.9°
Maximum altitude 17:54:48 88° 75° (ENE) 769 2.9 -15.9°
Drops below altitude 10° 17:59:53 10° 348° (NNW) 2,305 5.5 -17.0°
Sets 18:02:12 0° 349° (NNW) 3,234 6.2 -17.4°
